Location: Albany
(35.0000°S, 118.0000°E)
Time: 11:56:48
(UTC-04:00)

Tiangong - Visible Passes

Search period start: 25 September 2021 00:00
Search period end: 05 October 2021 00:00
Orbit: 382 x 385 km, 41.5° (Epoch: 25 September)

Date Brightness Start Highest point End Pass type
(mag) Time Alt. Az. Time Alt. Az. Time Alt. Az.
25 Sep 3.3 08:00:11 10° SW 08:02:12 22° SSW 08:02:12 22° SSW visible
26 Sep 2.9 07:00:03 10° WSW 07:02:48 25° S 07:05:12 12° SE visible
26 Sep 4.6 08:37:12 10° SW 08:37:24 11° SW 08:37:24 11° SW visible
27 Sep 2.6 07:37:16 10° SW 07:40:05 26° S 07:40:22 26° SSE visible
28 Sep 2.9 06:37:15 10° SW 06:39:58 24° S 06:42:41 10° ESE visible
28 Sep 3.6 08:14:07 10° WSW 08:15:32 22° SW 08:15:32 22° SW visible
29 Sep 2.3 07:14:14 10° SW 07:17:11 32° SSE 07:18:29 23° ESE visible
30 Sep 1.7 07:51:01 10° WSW 07:53:40 55° SW 07:53:40 55° SW visible
01 Oct 1.7 06:51:07 10° WSW 06:54:15 46° SSE 06:56:41 15° E visible
01 Oct 4.1 08:28:07 10° W 08:28:53 15° W 08:28:53 15° W visible
02 Oct 1.4 07:27:58 10° WSW 07:31:09 59° NNW 07:31:57 42° NNE visible
03 Oct 3.6 08:05:39 10° WNW 08:07:17 16° NW 08:07:17 16° NW visible
04 Oct 2.6 07:05:05 10° W 07:07:57 30° NNW 07:10:29 12° NNE visible
